Погода Нижний Тагил

Хотите узнать прогноз погоды Нижний Тагил? Тогда Вам сюда: Погода Нижний Тагил

Поиск расширенной информации на нашем сайте:

Полезная информация:

Новости сайта



02.01.2020
Опубликован Долгосрочный прогноз погоды по городам России и ближнего зарубежья на январь 2020 года.
Карты: Прогноз на январь и февраль 2020 года, Сравнение прогнозируемой аномалии приземной температуры воздуха на январь 2020 года по разным моделям.




Погода Нижний Тагил - сегодня

Время (UTC), дата Ветер
(°,м/с) 
Видим.   Явления Облачность Т
(°С)
Тd
(°С)
f(%) Тe
(°С)
Pmin
(гПа)
dP
(гПа)
Po
(мм)
O2
(г/м3)
Тmin Tmax R s Состояние
почвы
21 22.09.20 230 (ЮЗ) 20000 м  {ливн. осадки}  10/10 600 м 
[Sc]
+8.4 +7.1 92 +7  989.2  -4.6  719  280           
00 23.09.20 290 (З) 7-13{13}  20000 м  в посл. час ливневой дождь  10/10 600 м 
[Sc]
+7.5 +4.6 82 +5  989.6  0.2  719  281           
03 23.09.20 280 (З) 4-10{13}  20000 м    6/4 600 м средняя 
[Cu hum|Ac lent]
+6.8 +3.4 79 +5  991.8  2.1  721  283  +5.7      влажная 
06 23.09.20 280 (З) 6-11{13}  20000 м    10/10 600 м 
[Sc]
+7.4 +3.1 74 +5  993.9  2.1  722  283           
09 23.09.20 290 (З) 7-12{17}  20000 м    9/9 600 м 
[Sc]
+8.1 +3 70 +6  996.3  2.4  724  283           
12 23.09.20 300 (СЗ) 8-15{17}  20000 м    8/6 600 м средняя 
[Sc|Ac trans]
+8.2 +2.5 67 +6  999.9  3.5  727  284           
15 23.09.20 290 (З) 5{15}  20000 м    4/4 600 м 
[Sc]
+7.1 +2.7 74 +5  1003.8  3.6  729  286    +8.6       
18 23.09.20 300 (СЗ) 6-11{13}  20000 м    10/10 600 м 
[Sc]
+7.2 +3 75 +5  1005.8  731  286           
21 23.09.20 300 (СЗ) 4{12}  20000 м    3/3 600 м 
[Sc]
+6.7 +3.3 79 +5  1008.5  2.6  733  288           
00 24.09.20 300 (СЗ) 4{12}  20000 м    3/3 600 м 
[Sc]
+6.5 +2.8 77 +5  1012.5  3.8  736  289           
03 24.09.20 300 (СЗ) 20000 м    6/6 600 м 
[Sc]
+5.1 +2.3 82 +3  1015.7  738  292  +3.8        влажная 
06 24.09.20 310 (СЗ) 5{10}  20000 м    9/8 600 м средняя, верхняя 
[Sc|Ac lent|Ci fib]
+8.1 +2.3 67 +7  1018.2  2.7  740  289           
09 24.09.20 300 (СЗ) 20000 м    9/9 600 м 
[Sc diur, vesp]
+10.3 +2.6 59 +9  1020.2  2.2  742  288           
12 24.09.20 330 (СЗ) 20000 м    9/9 600 м 
[Sc]
+11.3 +2.7 55 +11  1022.3  2.2  743  287           
15 24.09.20 310 (СЗ) 20000 м    ясно 
+7.1 +0.8 64 +6  1025.2  2.4  745  292    +12       
18 24.09.20 090 (В) 20000 м    ясно 
+0.4 -0.2 96 +1  1027.7  1.6  746  300           
21 24.09.20 100 (В) 20000 м    ясно 
-1.7 -2.1 97 -1  1029.4  1.4  747  303           
00 25.09.20 130 (ЮВ) 20000 м    ясно 
-2.7 -3 98 -2  1030.5  0.9  748  305           
03 25.09.20 130 (ЮВ) 20000 м    3/0 средняя 
[As op]
-1 -1.3 98 1031.1  0.9  749  303  -3        замёрзшая 
06 25.09.20 240 (ЮЗ) 20000 м    ясно 
+9.8 +2.7 61 +10  1030.3  0.5  749  291           
09 25.09.20 280 (З) 20000 м    ясно 
+13.7 +3.5 50 +13  1029.4  -0.5  749  287           
12 25.09.20 280 (З) 20000 м    3/0 верхняя 
[Ci fib]
+14.5 +3.2 47 +15  1029.1  -0.3  748  286           
15 25.09.20 140 (ЮВ) 20000 м    4/0 верхняя 
[Ci fib]
+5.4 +4.1 91 +6  1030.3  0.2  749  295    +14.8       
18 25.09.20 120 (ЮВ) 20000 м    4/0 верхняя 
[Ci fib]
+3.1 +2.6 97 +4  1031.3  0.7  749  298           
21 25.09.20 130 (ЮВ) 20000 м    8/0 средняя, верхняя 
[Ac trans|Ci fib]
+2.2 +1.9 98 +3  1031.4  749  299           
Время (UTC), дата Ветер
(°,м/с) 
Видим.   Явления Облачность Т
(°С)
Тd
(°С)
f(%) Тe
(°С)
Pmin
(гПа)
dP
(гПа)
Po
(мм)
O2
(г/м3)
Тmin Tmax R s Состояние
почвы

Для получения пояснительной информации подведите курсор к названию столбца.

ПОГОДА Нижний Тагил - архив

Всё, что Вы хотите узнать о погоде Нижний Тагил - удобно и подробно!

Выберите нужную дату (начиная с 1 января 2019* года) и нажмите кнопку "Найти".
Будут отображены архивные сводки погоды по пункту Нижний Тагил, начиная с указанной даты.


Отображать данные в формате CSV (для использования в таблицах Excel)


Внимание! Наш архив погоды предназначен исключительно для личного некоммерческого использования в познавательных целях. Если Вам необходимы официальные справки о состоянии погоды (для производственных, юридических, коммерческих и т.п. целей), обращайтесь в органы Росгидромета.

*Примечание: данная дата относится к архиву по метеостанциям СССР (Россия, СНГ, Балтия).
Архив по метеостанциям Зарубежной Европы и Азии (кроме Китая) хранится 10 дней, по другим регионам земного шара (Китай, Африка, Америка, Австралия, Океания) - 1 день.

Нижний Тагил - район местоположения метеостанции


Название, широта, долгота, высота метеостанции:
Нижний Тагил 57.9°ш. 60.1°д. 260 м над ур. моря [Российская Федерация]

Дополнительная информация

В oтличие oт бoльшинства пoгoдных сайтoв мы публикуем пoдрoбную метеoинфoрмацию в детальнoм прoфессиoнальнoм фoрмате.

Характеристики температуры и влажнoсти вoздуха измеряются на высoте 2 м в тени вдали oт зданий и деревьев.
Скoрoсть ветра измеряется на высoте 10 м (на урoвне рoста челoвека скoрoсть ветра ниже в 1.5-2 раза). Если метеoстанция нахoдится в гoрoде или в лесу, тo скoрoсть ветра занижена на 2-4 м/с пo сравнению с oткрытым местoм. Скoрoсть ветра над акватoриями крупных рек и oзёр, а также на вершинах хoлмoв на 2-5 м/с выше, чем в oбычных услoвиях.
Атмoсфернoе давление в разных тoчках местнoсти мoжет значительнo oтличаться oт давления на метеoстанции, в зависимoсти oт услoвий рельефа (при пoдъёме на 10 м давление пoнижается примернo на 1 мм рт.ст.).